| time (UTC) | temp F | wind direction | speed knots | gust knots | rain 1hr in | rain 24hr in | rain mn in | humidity % | barometer mb |
| 20260507094515 | 42 | 54 | 0.0 | 1.7 | 0.00 | 0.00 | 0.00 | 53 | 1023.3 |
| 20260507093027 | 46 | 352 | 0.9 | 4.3 | 0.00 | 0.00 | 0.00 | 44 | 1023.2 |
| 20260507091548 | 48 | 115 | 0.0 | 3.5 | 0.00 | 0.00 | 0.00 | 43 | 1023.2 |
| 20260507090028 | 50 | 126 | 2.6 | 7.0 | 0.00 | 0.00 | 0.00 | 43 | 1023.2 |
| 20260507084530 | 46 | 76 | 1.7 | 5.2 | 0.00 | 0.00 | 0.00 | 50 | 1023.2 |
| 20260507083022 | 41 | 79 | 2.6 | 4.3 | 0.00 | 0.00 | 0.00 | 54 | 1023.2 |
| 20260507081535 | 40 | 111 | 0.0 | 2.6 | 0.00 | 0.00 | 0.00 | 50 | 1023.1 |
| 20260507080025 | 42 | 111 | 0.9 | 1.7 | 0.00 | 0.00 | 0.00 | 46 | 1023.1 |
| 20260507074530 | 45 | 189 | 0.9 | 1.7 | 0.00 | 0.00 | 0.00 | 45 | 1023.0 |
| 20260507073036 | 46 | 134 | 3.5 | 7.0 | 0.00 | 0.00 | 0.00 | 44 | 1023.0 |
| 20260507071522 | 48 | 140 | 0.0 | 2.6 | 0.00 | 0.00 | 0.00 | 42 | 1022.7 |
| 20260507070007 | 52 | 100 | 1.7 | 6.1 | 0.00 | 0.00 | 0.00 | 38 | 1022.7 |
| 20260507064513 | 52 | 344 | 2.6 | 5.2 | 0.00 | 0.00 | 0.00 | 32 | 1022.5 |
| 20260507063015 | 49 | 9 | 0.9 | 4.3 | 0.00 | 0.00 | 0.00 | 39 | 1022.5 |
| 20260507061529 | 46 | 346 | 0.9 | 1.7 | 0.00 | 0.00 | 0.00 | 42 | 1022.5 |
| 20260507060031 | 48 | 48 | 0.0 | 0.9 | 0.00 | 0.00 | 0.00 | 39 | 1022.4 |
| 20260507054505 | 50 | 48 | 0.9 | 2.6 | 0.00 | 0.00 | 0.00 | 36 | 1022.2 |
| 20260507053015 | 51 | 22 | 1.7 | 3.5 | 0.00 | 0.00 | 0.00 | 36 | 1022.3 |
| 20260507051528 | 48 | 21 | 1.7 | 2.6 | 0.00 | 0.00 | 0.00 | 40 | 1022.1 |
| 20260507050033 | 44 | 34 | 1.7 | 2.6 | 0.00 | 0.00 | 0.00 | 45 | 1022.0 |
| 20260507044541 | 42 | 34 | 0.9 | 2.6 | 0.00 | 0.00 | 0.00 | 47 | 1022.0 |
| 20260507043010 | 42 | 34 | 0.9 | 1.7 | 0.00 | 0.00 | 0.00 | 47 | 1022.0 |
| 20260507041516 | 43 | 35 | 1.7 | 2.6 | 0.00 | 0.00 | 0.00 | 45 | 1021.8 |
| 20260507040023 | 44 | 47 | 1.7 | 2.6 | 0.00 | 0.00 | 0.00 | 44 | 1021.8 |
| 20260507034521 | 45 | 47 | 1.7 | 2.6 | 0.00 | 0.00 | 0.00 | 42 | 1021.7 |
| 20260507033028 | 47 | 47 | 0.9 | 2.6 | 0.00 | 0.00 | 0.00 | 41 | 1021.4 |
| 20260507031512 | 48 | 47 | 0.9 | 1.7 | 0.00 | 0.00 | 0.00 | 39 | 1021.2 |
| 20260507030018 | 50 | 47 | 0.9 | 1.7 | 0.00 | 0.00 | 0.00 | 36 | 1021.0 |
| 20260507024522 | 52 | 47 | 0.9 | 1.7 | 0.00 | 0.00 | 0.00 | 35 | 1020.8 |
| 20260507023026 | 56 | 76 | 0.9 | 1.7 | 0.00 | 0.00 | 0.00 | 31 | 1020.6 |
| 20260507021526 | 59 | 266 | 0.0 | 1.7 | 0.00 | 0.00 | 0.00 | 29 | 1020.5 |
| 20260507020014 | 60 | 266 | 0.9 | 2.6 | 0.00 | 0.00 | 0.00 | 27 | 1020.4 |
| 20260507014516 | 61 | 333 | 0.0 | 7.8 | 0.00 | 0.00 | 0.00 | 26 | 1020.4 |
| 20260507013025 | 62 | 284 | 1.7 | 4.3 | 0.00 | 0.00 | 0.00 | 25 | 1020.2 |
| 20260507011531 | 62 | 267 | 3.5 | 7.0 | 0.00 | 0.00 | 0.00 | 23 | 1020.1 |
| 20260507010028 | 64 | 106 | 0.9 | 5.2 | 0.00 | 0.00 | 0.00 | 22 | 1020.0 |
| 20260507004517 | 65 | 315 | 2.6 | 9.6 | 0.00 | 0.00 | 0.00 | 23 | 1019.9 |
| 20260507003022 | 65 | 20 | 2.6 | 7.8 | 0.00 | 0.00 | 0.00 | 21 | 1019.8 |
| 20260507001526 | 66 | 9 | 3.5 | 11.3 | 0.00 | 0.00 | 0.00 | 21 | 1019.7 |
| 20260507000029 | 65 | 56 | 2.6 | 15.6 | 0.00 | 0.00 | 0.00 | 22 | 1019.5 |
| 20260506234530 | 65 | 284 | 4.3 | 11.3 | 0.00 | 0.00 | 0.00 | 22 | 1019.5 |
| 20260506233020 | 65 | 350 | 3.5 | 9.6 | 0.00 | 0.00 | 0.00 | 24 | 1019.5 |
| 20260506231526 | 65 | 304 | 4.3 | 12.2 | 0.00 | 0.00 | 0.00 | 23 | 1019.4 |
| 20260506230030 | 66 | 327 | 5.2 | 10.4 | 0.00 | 0.00 | 0.00 | 23 | 1019.3 |
| 20260506224525 | 64 | 261 | 5.2 | 14.8 | 0.00 | 0.00 | 0.00 | 23 | 1019.3 |
| 20260506223017 | 65 | 290 | 7.8 | 15.6 | 0.00 | 0.00 | 0.00 | 22 | 1019.4 |
| 20260506221520 | 66 | 304 | 3.5 | 9.6 | 0.00 | 0.00 | 0.00 | 24 | 1019.6 |
| 20260506220005 | 65 | 15 | 4.3 | 12.2 | 0.00 | 0.00 | 0.00 | 22 | 1019.8 |
| 20260506214506 | 65 | 324 | 3.5 | 13.9 | 0.00 | 0.00 | 0.00 | 21 | 1019.9 |
| 20260506213014 | 63 | 317 | 8.7 | 13.9 | 0.00 | 0.00 | 0.00 | 25 | 1020.0 |
| 20260506211512 | 63 | 14 | 3.5 | 16.5 | 0.00 | 0.00 | 0.00 | 24 | 1020.0 |
| 20260506210005 | 63 | 315 | 5.2 | 10.4 | 0.00 | 0.00 | 0.00 | 28 | 1020.0 |
| 20260506204508 | 63 | 313 | 5.2 | 10.4 | 0.00 | 0.00 | 0.00 | 29 | 1020.1 |
| 20260506203010 | 64 | 311 | 4.3 | 11.3 | 0.00 | 0.00 | 0.00 | 29 | 1020.3 |
| 20260506201509 | 63 | 306 | 5.2 | 13.0 | 0.00 | 0.00 | 0.00 | 29 | 1020.3 |
| 20260506200010 | 62 | 350 | 4.3 | 12.2 | 0.00 | 0.00 | 0.00 | 32 | 1020.3 |
| 20260506194507 | 61 | 331 | 3.5 | 8.7 | 0.00 | 0.00 | 0.00 | 32 | 1020.4 |
| 20260506193014 | 59 | 16 | 3.5 | 10.4 | 0.00 | 0.00 | 0.00 | 33 | 1020.4 |
| 20260506191512 | 59 | 293 | 4.3 | 13.9 | 0.00 | 0.00 | 0.00 | 33 | 1020.4 |
| 20260506190010 | 59 | 24 | 3.5 | 9.6 | 0.00 | 0.00 | 0.00 | 33 | 1020.7 |
| 20260506184511 | 59 | 37 | 3.5 | 8.7 | 0.00 | 0.00 | 0.00 | 35 | 1020.7 |
| 20260506183008 | 57 | 236 | 5.2 | 12.2 | 0.00 | 0.00 | 0.00 | 36 | 1020.8 |
| 20260506181512 | 57 | 291 | 1.7 | 11.3 | 0.00 | 0.00 | 0.00 | 35 | 1020.8 |
| 20260506180013 | 57 | 314 | 5.2 | 13.9 | 0.00 | 0.00 | 0.00 | 36 | 1020.9 |
| 20260506174513 | 56 | 236 | 3.5 | 10.4 | 0.00 | 0.00 | 0.00 | 35 | 1020.9 |
| 20260506173008 | 55 | 258 | 2.6 | 10.4 | 0.00 | 0.00 | 0.00 | 37 | 1020.9 |
| 20260506171509 | 54 | 325 | 4.3 | 10.4 | 0.00 | 0.00 | 0.00 | 37 | 1020.8 |
| 20260506170016 | 54 | 324 | 4.3 | 8.7 | 0.00 | 0.00 | 0.00 | 36 | 1020.7 |
| 20260506164514 | 52 | 237 | 3.5 | 7.0 | 0.00 | 0.00 | 0.00 | 38 | 1020.5 |
| 20260506163029 | 52 | 267 | 2.6 | 7.8 | 0.00 | 0.00 | 0.00 | 40 | 1020.6 |
| 20260506161510 | 51 | 311 | 2.6 | 11.3 | 0.00 | 0.00 | 0.00 | 41 | 1020.6 |
| 20260506160017 | 51 | 330 | 3.5 | 7.0 | 0.00 | 0.00 | 0.00 | 41 | 1020.5 |
| 20260506154522 | 50 | 250 | 4.3 | 7.0 | 0.00 | 0.00 | 0.00 | 43 | 1020.3 |
| 20260506153016 | 49 | 298 | 5.2 | 9.6 | 0.00 | 0.00 | 0.00 | 44 | 1020.3 |
| 20260506151518 | 48 | 298 | 4.3 | 7.8 | 0.00 | 0.00 | 0.00 | 46 | 1020.2 |
| 20260506150018 | 48 | 304 | 1.7 | 7.8 | 0.00 | 0.00 | 0.00 | 49 | 1019.9 |
| 20260506144516 | 47 | 306 | 2.6 | 7.0 | 0.00 | 0.00 | 0.00 | 51 | 1019.9 |
| 20260506143018 | 45 | 297 | 2.6 | 4.3 | 0.00 | 0.00 | 0.00 | 51 | 1019.8 |
| 20260506141522 | 43 | 338 | 0.0 | 2.6 | 0.00 | 0.00 | 0.00 | 60 | 1019.9 |
| 20260506140020 | 37 | 32 | 0.0 | 1.7 | 0.00 | 0.00 | 0.00 | 73 | 1019.7 |
| 20260506134515 | 32 | 32 | 0.9 | 1.7 | 0.00 | 0.00 | 0.00 | 78 | 1019.5 |
| 20260506133021 | 0 | 0.0 | 0.0 | 0.00 | 0.00 | 0.00 | 1019.3 | ||
| 20260506131520 | 0 | 0.0 | 0.0 | 0.00 | 0.00 | 0.00 | 1019.3 | ||
| 20260506130022 | 0 | 0.0 | 0.0 | 0.00 | 0.00 | 0.00 | 1019.1 | ||
| 20260506124524 | 0 | 0.0 | 0.0 | 0.00 | 0.00 | 0.00 | 1018.8 | ||
| 20260506123023 | 0 | 0.0 | 0.0 | 0.00 | 0.00 | 0.00 | 1018.6 | ||
| 20260506121523 | 0 | 0.0 | 0.0 | 0.00 | 0.00 | 0.00 | 1018.6 | ||
| 20260506120030 | 0 | 0.0 | 0.0 | 0.00 | 0.00 | 0.00 | 1018.7 | ||
| 20260506114526 | 0 | 0.0 | 0.0 | 0.00 | 0.00 | 0.00 | 1018.5 | ||
| 20260506113024 | 0 | 0.0 | 0.0 | 0.00 | 0.00 | 0.00 | 1018.5 | ||
| 20260506111527 | 0 | 0.0 | 0.0 | 0.00 | 0.00 | 0.00 | 1018.5 | ||
| 20260506110027 | 0 | 0.0 | 0.0 | 0.00 | 0.00 | 0.00 | 1018.5 | ||
| 20260506104526 | 0 | 0.0 | 0.0 | 0.00 | 0.00 | 0.00 | 1018.4 | ||
| 20260506103027 | 0 | 0.0 | 0.0 | 0.00 | 0.00 | 0.00 | 1018.1 | ||
| 20260506101529 | 0 | 0.0 | 0.0 | 0.00 | 0.00 | 0.00 | 1018.0 | ||
| 20260506100027 | 0 | 0.0 | 0.0 | 0.00 | 0.00 | 0.00 | 1017.8 |